Location: New Town
(33.2710°N, 90.7534°W)
Time: 12:53:41
(UTC+00:00)

Explorer 11/Cluster Stage 4 - Pass Details

Date: 17 May 2021
Orbit: 467 x 1257 km, 28.8° (Epoch: 14 June)

Event Time Altitude Azimuth Distance (km) Brightness Sun altitude
Rises 23:11:39 0° 225° (SW) 3,571 10.4 20.3°
Reaches altitude 10° 23:14:22 10° 216° (SW) 2,750 9.8 19.7°
Maximum altitude 23:20:21 32° 155° (SSE) 1,797 8.3 18.5°
Drops below altitude 10° 23:27:12 10° 96° (E) 3,157 9.1 17.1°
Sets 23:30:32 0° 87° (E) 4,173 9.7 16.4°
